Weather History for Burlington, IA

Change the Weather History Date:

Monday, January 14, 2013

  Actual Average Record
Temperature  
Mean Temperature 16 °F 26 °F  
Max Temperature 26 °F 34 °F 64 °F (1952)
Min Temperature 5 °F 17 °F -24 °F (1957)
Degree Days  
Heating Degree Days 49 39  
Month to date heating degree days 514 546  
Since 1 July heating degree days 2707 2732  
Cooling Degree Days 0 0  
Month to date cooling degree days 0 0  
Year to date cooling degree days 0 0  
Moisture  
Dew Point 7 °F    
Average Humidity 67    
Maximum Humidity 88    
Minimum Humidity 46    
Precipitation  
Precipitation 0.00 in 0.04 in 0.43 in (1960)
Month to date precipitation 0.61 0.58  
Year to date precipitation 0.61 0.58  
Sea Level Pressure  
Sea Level Pressure 30.46 in    
Wind  
Wind Speed 2 mph (WNW)    
Max Wind Speed 9 mph    
Max Gust Speed 12 mph    
Visibility 10 miles    
Events      
T = Trace of Precipitation, MM = Missing Value Source: NWS Daily Summary

Daily Weather History Graph

Daily Weather History Graph

Search for Another Location

Airport:

Trip Planner

Search our weather history database for the weather conditions in past years. The results will help you decide how hot, cold, wet, or windy it might be!

Date:

Astronomy

Jan. 14, 2013 Rise Set
Actual Time 7:26 AM CST 5:00 PM CST
Civil Twilight 6:56 AM CST 5:31 PM CST
Nautical Twilight 6:22 AM CST 6:04 PM CST
Astronomical Twilight 5:50 AM CST 6:37 PM CST
Moon 8:59 AM CST (1/14) 8:48 PM CST (1/14)
Length of Visible Light 10h 34m
Length of Day
9h 33m
Waxing Crescent, 11% of the Moon is Illuminated
Jan 14
Waxing Crescent
Jan 18
First Quarter
Jan 26
Full
Feb 3
Last Quarter
Feb 10
New

Hourly Weather History & Observations

Time (CST) Temp. Windchill Dew Point Humidity Pressure Visibility Wind Dir Wind Speed Gust Speed Precip Events Conditions
12:53 AM 12.0 °F 4.1 °F 6.1 °F 77% 30.36 in 10.0 mi WNW 4.6 mph - N/A   Clear
1:53 AM 10.9 °F - 5.0 °F 77% 30.39 in 10.0 mi Calm Calm - N/A   Clear
2:53 AM 8.6 °F -1.3 °F 5.0 °F 85% 30.41 in 10.0 mi SW 5.8 mph - N/A   Clear
3:53 AM 8.6 °F 2.0 °F 3.2 °F 79% 30.41 in 10.0 mi West 3.5 mph - N/A   Clear
4:53 AM 8.1 °F 1.4 °F 3.9 °F 83% 30.46 in 10.0 mi West 3.5 mph - N/A   Clear
5:53 AM 8.6 °F - 3.2 °F 79% 30.43 in 10.0 mi Calm Calm - N/A   Clear
6:53 AM 6.1 °F -0.9 °F 3.0 °F 87% 30.48 in 10.0 mi NW 3.5 mph - N/A   Clear
7:53 AM 9.0 °F - 3.9 °F 80% 30.50 in 10.0 mi Calm Calm - N/A   Clear
8:53 AM 12.9 °F 5.2 °F 7.0 °F 77% 30.48 in 10.0 mi NNW 4.6 mph - N/A   Clear
9:53 AM 15.1 °F - 5.0 °F 64% 30.52 in 10.0 mi Calm Calm - N/A   Clear
10:53 AM 18.0 °F 12.7 °F 8.1 °F 65% 30.52 in 10.0 mi NW 3.5 mph - N/A   Clear
11:53 AM 19.9 °F 11.1 °F 8.1 °F 60% 30.48 in 10.0 mi NW 6.9 mph - N/A   Clear
12:53 PM 21.9 °F 15.7 °F 7.0 °F 53% 30.47 in 10.0 mi NW 4.6 mph - N/A   Clear
1:53 PM 24.8 °F - 6.8 °F 46% 30.43 in 10.0 mi Calm Calm - N/A   Clear
2:53 PM 25.0 °F 19.3 °F 10.0 °F 53% 30.47 in 10.0 mi ESE 4.6 mph - N/A   Clear
3:53 PM 25.0 °F 20.7 °F 9.0 °F 51% 30.47 in 10.0 mi East 3.5 mph - N/A   Clear
4:53 PM 23.0 °F 18.4 °F 8.1 °F 53% 30.47 in 10.0 mi SE 3.5 mph - N/A   Clear
5:53 PM 19.0 °F 13.9 °F 9.0 °F 65% 30.48 in 10.0 mi SSE 3.5 mph - N/A   Clear
6:53 PM 19.0 °F - 9.0 °F 65% 30.47 in 10.0 mi Calm Calm - N/A   Clear
7:53 PM 15.1 °F - 8.1 °F 74% 30.47 in 10.0 mi Calm Calm - N/A   Clear
8:53 PM 14.0 °F - 9.0 °F 80% 30.46 in 10.0 mi Calm Calm - N/A   Clear
9:53 PM 12.0 °F - 8.1 °F 84% 30.46 in 10.0 mi Calm Calm - N/A   Clear
10:53 PM 12.0 °F - 9.0 °F 88% 30.46 in 10.0 mi Calm Calm - N/A   Clear
11:53 PM 12.9 °F - 8.1 °F 81% 30.45 in 10.0 mi Calm Calm - N/A   Clear